| time (UTC) | temp F | wind direction | speed MPH | gust MPH | rain 1hr in | rain 24hr in | rain mn in | humidity % | barometer mb |
| 20260503032503 | 43 | 0 | 0.0 | 0.0 | 0.00 | 0.00 | 0.00 | 74 | 1018.0 |
| 20260503032003 | 43 | 0 | 0.0 | 0.0 | 0.00 | 0.00 | 0.00 | 74 | 1017.9 |
| 20260503031503 | 43 | 0 | 0.0 | 0.0 | 0.00 | 0.00 | 0.00 | 74 | 1017.9 |
| 20260503031003 | 44 | 0 | 0.0 | 0.0 | 0.00 | 0.00 | 0.00 | 74 | 1017.9 |
| 20260503030503 | 44 | 0 | 0.0 | 0.0 | 0.00 | 0.00 | 0.00 | 74 | 1017.9 |
| 20260503030218 | 44 | 0 | 0.0 | 0.0 | 0.00 | 0.00 | 0.00 | 72 | 1018.0 |
| 20260503025503 | 45 | 0 | 0.0 | 0.0 | 0.00 | 0.00 | 0.00 | 71 | 1017.9 |
| 20260503025003 | 45 | 0 | 0.0 | 0.0 | 0.00 | 0.00 | 0.00 | 71 | 1017.9 |
| 20260503024717 | 46 | 0 | 0.0 | 0.0 | 0.00 | 0.00 | 0.00 | 70 | 1017.9 |
| 20260503024003 | 46 | 0 | 0.0 | 0.0 | 0.00 | 0.00 | 0.00 | 69 | 1017.9 |
| 20260503023503 | 46 | 0 | 0.0 | 0.0 | 0.00 | 0.00 | 0.00 | 69 | 1017.9 |
| 20260503023003 | 46 | 0 | 0.0 | 0.0 | 0.00 | 0.00 | 0.00 | 68 | 1017.9 |
| 20260503022503 | 46 | 0 | 0.0 | 0.0 | 0.00 | 0.00 | 0.00 | 67 | 1017.9 |
| 20260503022003 | 47 | 0 | 0.0 | 0.0 | 0.00 | 0.00 | 0.00 | 67 | 1017.8 |
| 20260503021503 | 47 | 0 | 0.0 | 0.0 | 0.00 | 0.00 | 0.00 | 66 | 1017.8 |
| 20260503021003 | 47 | 0 | 0.0 | 0.0 | 0.00 | 0.00 | 0.00 | 65 | 1017.8 |
| 20260503020503 | 48 | 0 | 0.0 | 0.0 | 0.00 | 0.00 | 0.00 | 64 | 1017.9 |
| 20260503020218 | 48 | 0 | 0.0 | 0.0 | 0.00 | 0.00 | 0.00 | 63 | 1017.8 |
| 20260503015503 | 49 | 0 | 0.0 | 0.0 | 0.00 | 0.00 | 0.00 | 61 | 1017.7 |
| 20260503015003 | 49 | 0 | 0.0 | 0.0 | 0.00 | 0.00 | 0.00 | 60 | 1017.6 |
| 20260503014503 | 50 | 0 | 0.0 | 0.0 | 0.00 | 0.00 | 0.00 | 59 | 1017.6 |
| 20260503014003 | 50 | 0 | 0.0 | 0.0 | 0.00 | 0.00 | 0.00 | 58 | 1017.6 |
| 20260503013503 | 50 | 0 | 0.0 | 0.0 | 0.00 | 0.00 | 0.00 | 56 | 1017.5 |
| 20260503013218 | 50 | 0 | 0.0 | 0.0 | 0.00 | 0.00 | 0.00 | 55 | 1017.5 |
| 20260503012503 | 51 | 0 | 0.0 | 0.0 | 0.00 | 0.00 | 0.00 | 52 | 1017.4 |
| 20260503012003 | 51 | 0 | 0.0 | 0.0 | 0.00 | 0.00 | 0.00 | 50 | 1017.3 |
| 20260503011503 | 52 | 0 | 0.0 | 0.0 | 0.00 | 0.00 | 0.00 | 51 | 1017.3 |
| 20260503011009 | 52 | 354 | 0.0 | 1.0 | 0.00 | 0.00 | 0.00 | 49 | 1017.3 |
| 20260503010503 | 52 | 354 | 0.0 | 1.0 | 0.00 | 0.00 | 0.00 | 49 | 1017.3 |
| 20260503010004 | 52 | 352 | 0.0 | 1.0 | 0.00 | 0.00 | 0.00 | 48 | 1017.3 |
| 20260503005503 | 53 | 352 | 0.0 | 1.0 | 0.00 | 0.00 | 0.00 | 46 | 1017.3 |
| 20260503005003 | 53 | 355 | 0.0 | 2.0 | 0.00 | 0.00 | 0.00 | 46 | 1017.3 |
| 20260503004503 | 53 | 355 | 0.0 | 2.0 | 0.00 | 0.00 | 0.00 | 45 | 1017.4 |
| 20260503004003 | 54 | 355 | 0.0 | 3.0 | 0.00 | 0.00 | 0.00 | 44 | 1017.3 |
| 20260503003503 | 54 | 356 | 0.0 | 3.0 | 0.00 | 0.00 | 0.00 | 43 | 1017.3 |
| 20260503003217 | 54 | 356 | 0.0 | 3.0 | 0.00 | 0.00 | 0.00 | 44 | 1017.3 |
| 20260503002718 | 54 | 3 | 0.0 | 2.0 | 0.00 | 0.00 | 0.00 | 43 | 1017.3 |
| 20260503002003 | 54 | 354 | 1.0 | 2.0 | 0.00 | 0.00 | 0.00 | 43 | 1017.2 |
| 20260503001503 | 54 | 354 | 1.0 | 4.0 | 0.00 | 0.00 | 0.00 | 43 | 1017.3 |
| 20260503001003 | 55 | 354 | 1.0 | 5.0 | 0.00 | 0.00 | 0.00 | 42 | 1017.2 |
| 20260503000718 | 55 | 350 | 1.0 | 5.0 | 0.00 | 0.00 | 0.00 | 42 | 1017.2 |
| 20260503000003 | 55 | 343 | 1.0 | 3.0 | 0.00 | 0.00 | 0.00 | 42 | 1017.2 |
| 20260502235503 | 55 | 315 | 1.0 | 3.0 | 0.00 | 0.00 | 0.00 | 42 | 1017.1 |
| 20260502235003 | 55 | 305 | 1.0 | 2.0 | 0.00 | 0.00 | 0.00 | 41 | 1017.2 |
| 20260502234718 | 55 | 310 | 1.0 | 3.0 | 0.00 | 0.00 | 0.00 | 40 | 1017.2 |
| 20260502234003 | 56 | 347 | 2.0 | 7.0 | 0.00 | 0.00 | 0.00 | 40 | 1017.2 |
| 20260502233503 | 56 | 358 | 2.0 | 7.0 | 0.00 | 0.00 | 0.00 | 40 | 1017.2 |
| 20260502233217 | 56 | 360 | 2.0 | 6.0 | 0.00 | 0.00 | 0.00 | 42 | 1017.1 |
| 20260502232503 | 57 | 312 | 0.0 | 2.0 | 0.00 | 0.00 | 0.00 | 40 | 1017.0 |
| 20260502232003 | 56 | 349 | 1.0 | 4.0 | 0.00 | 0.00 | 0.00 | 39 | 1017.1 |
| 20260502231503 | 56 | 4 | 1.0 | 6.0 | 0.00 | 0.00 | 0.00 | 41 | 1017.1 |
| 20260502231003 | 56 | 7 | 1.0 | 6.0 | 0.00 | 0.00 | 0.00 | 40 | 1017.0 |
| 20260502230503 | 56 | 316 | 1.0 | 3.0 | 0.00 | 0.00 | 0.00 | 40 | 1017.0 |
| 20260502230003 | 56 | 315 | 1.0 | 2.0 | 0.00 | 0.00 | 0.00 | 40 | 1017.1 |
| 20260502225503 | 56 | 314 | 1.0 | 3.0 | 0.00 | 0.00 | 0.00 | 42 | 1017.1 |
| 20260502225003 | 56 | 309 | 1.0 | 3.0 | 0.00 | 0.00 | 0.00 | 39 | 1017.0 |
| 20260502224503 | 56 | 318 | 1.0 | 3.0 | 0.00 | 0.00 | 0.00 | 40 | 1017.2 |
| 20260502224003 | 56 | 332 | 1.0 | 4.0 | 0.00 | 0.00 | 0.00 | 41 | 1017.0 |
| 20260502223503 | 56 | 345 | 0.0 | 4.0 | 0.00 | 0.00 | 0.00 | 41 | 1017.0 |
| 20260502223004 | 55 | 313 | 1.0 | 3.0 | 0.00 | 0.00 | 0.00 | 41 | 1017.1 |
| 20260502222503 | 55 | 308 | 1.0 | 3.0 | 0.00 | 0.00 | 0.00 | 41 | 1017.0 |
| 20260502222003 | 56 | 309 | 1.0 | 3.0 | 0.00 | 0.00 | 0.00 | 39 | 1017.0 |
| 20260502221503 | 56 | 324 | 1.0 | 6.0 | 0.00 | 0.00 | 0.00 | 38 | 1017.0 |
| 20260502221003 | 55 | 359 | 2.0 | 8.0 | 0.00 | 0.00 | 0.00 | 41 | 1017.0 |
| 20260502220503 | 55 | 360 | 2.0 | 8.0 | 0.00 | 0.00 | 0.00 | 40 | 1017.0 |
| 20260502220003 | 56 | 339 | 2.0 | 5.0 | 0.00 | 0.00 | 0.00 | 41 | 1017.1 |
| 20260502215503 | 56 | 343 | 2.0 | 6.0 | 0.00 | 0.00 | 0.00 | 41 | 1017.1 |
| 20260502215003 | 56 | 349 | 2.0 | 6.0 | 0.00 | 0.00 | 0.00 | 40 | 1017.1 |
| 20260502214503 | 56 | 358 | 2.0 | 7.0 | 0.00 | 0.00 | 0.00 | 43 | 1017.0 |
| 20260502214003 | 56 | 358 | 2.0 | 7.0 | 0.00 | 0.00 | 0.00 | 40 | 1017.0 |
| 20260502213717 | 56 | 358 | 2.0 | 7.0 | 0.00 | 0.00 | 0.00 | 41 | 1017.0 |
| 20260502213218 | 56 | 312 | 1.0 | 3.0 | 0.00 | 0.00 | 0.00 | 42 | 1016.9 |
| 20260502212503 | 55 | 315 | 2.0 | 3.0 | 0.00 | 0.00 | 0.00 | 40 | 1017.1 |
| 20260502212004 | 56 | 317 | 2.0 | 5.0 | 0.00 | 0.00 | 0.00 | 40 | 1017.0 |
| 20260502211503 | 56 | 311 | 2.0 | 5.0 | 0.00 | 0.00 | 0.00 | 40 | 1017.0 |
| 20260502211003 | 56 | 311 | 2.0 | 4.0 | 0.00 | 0.00 | 0.00 | 38 | 1016.9 |
| 20260502210503 | 56 | 313 | 2.0 | 4.0 | 0.00 | 0.00 | 0.00 | 40 | 1016.9 |
| 20260502210004 | 56 | 315 | 2.0 | 4.0 | 0.00 | 0.00 | 0.00 | 40 | 1017.0 |
| 20260502205503 | 56 | 321 | 1.0 | 4.0 | 0.00 | 0.00 | 0.00 | 41 | 1017.0 |
| 20260502205003 | 56 | 343 | 2.0 | 8.0 | 0.00 | 0.00 | 0.00 | 40 | 1017.0 |
| 20260502204504 | 56 | 339 | 3.0 | 8.0 | 0.00 | 0.00 | 0.00 | 40 | 1017.0 |
| 20260502204003 | 56 | 317 | 1.0 | 4.0 | 0.00 | 0.00 | 0.00 | 40 | 1017.0 |
| 20260502203718 | 56 | 315 | 1.0 | 3.0 | 0.00 | 0.00 | 0.00 | 41 | 1017.0 |
| 20260502203218 | 56 | 308 | 1.0 | 3.0 | 0.00 | 0.00 | 0.00 | 41 | 1017.0 |
| 20260502202503 | 57 | 312 | 2.0 | 4.0 | 0.00 | 0.00 | 0.00 | 40 | 1017.0 |
| 20260502202003 | 57 | 317 | 2.0 | 8.0 | 0.00 | 0.00 | 0.00 | 40 | 1017.1 |
| 20260502201718 | 57 | 319 | 2.0 | 8.0 | 0.00 | 0.00 | 0.00 | 41 | 1017.2 |
| 20260502201217 | 57 | 304 | 1.0 | 3.0 | 0.00 | 0.00 | 0.00 | 42 | 1017.1 |
| 20260502200503 | 56 | 315 | 2.0 | 7.0 | 0.00 | 0.00 | 0.00 | 41 | 1017.3 |
| 20260502200003 | 56 | 319 | 1.0 | 7.0 | 0.00 | 0.00 | 0.00 | 40 | 1017.2 |
| 20260502195503 | 56 | 312 | 1.0 | 3.0 | 0.00 | 0.00 | 0.00 | 40 | 1017.3 |
| 20260502195003 | 56 | 337 | 1.0 | 8.0 | 0.00 | 0.00 | 0.00 | 40 | 1017.4 |
| 20260502194503 | 56 | 351 | 2.0 | 8.0 | 0.00 | 0.00 | 0.00 | 43 | 1017.4 |
| 20260502194003 | 56 | 334 | 2.0 | 10.0 | 0.00 | 0.00 | 0.00 | 40 | 1017.4 |
| 20260502193504 | 57 | 322 | 2.0 | 10.0 | 0.00 | 0.00 | 0.00 | 40 | 1017.4 |
| 20260502193003 | 57 | 311 | 1.0 | 3.0 | 0.00 | 0.00 | 0.00 | 39 | 1017.3 |
| 20260502192503 | 57 | 315 | 2.0 | 5.0 | 0.00 | 0.00 | 0.00 | 39 | 1017.3 |
| 20260502192217 | 57 | 314 | 2.0 | 5.0 | 0.00 | 0.00 | 0.00 | 40 | 1017.4 |
| 20260502191718 | 57 | 319 | 2.0 | 9.0 | 0.00 | 0.00 | 0.00 | 41 | 1017.5 |
| 20260502191217 | 57 | 322 | 2.0 | 9.0 | 0.00 | 0.00 | 0.00 | 39 | 1017.6 |
| 20260502190503 | 57 | 308 | 1.0 | 4.0 | 0.00 | 0.00 | 0.00 | 41 | 1017.5 |
| 20260502190217 | 57 | 306 | 1.0 | 3.0 | 0.00 | 0.00 | 0.00 | 42 | 1017.5 |
| 20260502185503 | 56 | 344 | 3.0 | 10.0 | 0.00 | 0.00 | 0.00 | 39 | 1017.6 |
| 20260502185003 | 56 | 339 | 3.0 | 10.0 | 0.00 | 0.00 | 0.00 | 41 | 1017.6 |
| 20260502184503 | 56 | 313 | 2.0 | 5.0 | 0.00 | 0.00 | 0.00 | 42 | 1017.6 |
| 20260502184003 | 55 | 325 | 2.0 | 5.0 | 0.00 | 0.00 | 0.00 | 42 | 1017.6 |
| 20260502183503 | 55 | 333 | 2.0 | 6.0 | 0.00 | 0.00 | 0.00 | 40 | 1017.7 |
| 20260502183003 | 55 | 336 | 2.0 | 7.0 | 0.00 | 0.00 | 0.00 | 42 | 1017.7 |
| 20260502182503 | 56 | 338 | 2.0 | 7.0 | 0.00 | 0.00 | 0.00 | 41 | 1017.7 |
| 20260502182003 | 56 | 329 | 2.0 | 6.0 | 0.00 | 0.00 | 0.00 | 41 | 1017.8 |
| 20260502181503 | 56 | 332 | 1.0 | 6.0 | 0.00 | 0.00 | 0.00 | 43 | 1017.7 |
| 20260502181218 | 56 | 332 | 1.0 | 6.0 | 0.00 | 0.00 | 0.00 | 40 | 1017.7 |
| 20260502180503 | 56 | 314 | 1.0 | 4.0 | 0.00 | 0.00 | 0.00 | 42 | 1017.8 |
| 20260502170503 | 56 | 24 | 1.0 | 7.0 | 0.00 | 0.00 | 0.00 | 47 | 1018.1 |
| 20260502164003 | 55 | 350 | 2.0 | 7.0 | 0.00 | 0.00 | 0.00 | 48 | 1018.2 |
| 20260502163503 | 54 | 3 | 2.0 | 6.0 | 0.00 | 0.00 | 0.00 | 51 | 1018.3 |
| 20260502163218 | 54 | 5 | 2.0 | 6.0 | 0.00 | 0.00 | 0.00 | 46 | 1018.2 |
| 20260502162503 | 54 | 338 | 1.0 | 6.0 | 0.00 | 0.00 | 0.00 | 51 | 1018.4 |
| 20260502162003 | 54 | 354 | 1.0 | 6.0 | 0.00 | 0.00 | 0.00 | 52 | 1018.6 |
| 20260502161503 | 54 | 358 | 2.0 | 6.0 | 0.00 | 0.00 | 0.00 | 52 | 1018.7 |
| 20260502161003 | 54 | 347 | 1.0 | 5.0 | 0.00 | 0.00 | 0.00 | 54 | 1018.7 |
| 20260502160503 | 53 | 337 | 1.0 | 6.0 | 0.00 | 0.00 | 0.00 | 53 | 1018.7 |
| 20260502152003 | 51 | 7 | 2.0 | 4.0 | 0.00 | 0.00 | 0.00 | 56 | 1018.6 |
| 20260502151503 | 52 | 1 | 2.0 | 6.0 | 0.00 | 0.00 | 0.00 | 55 | 1018.6 |
| 20260502151003 | 51 | 21 | 3.0 | 6.0 | 0.00 | 0.00 | 0.00 | 55 | 1018.7 |
| 20260502150503 | 51 | 44 | 2.0 | 6.0 | 0.00 | 0.00 | 0.00 | 56 | 1018.6 |
| 20260502130503 | 45 | 31 | 0.0 | 4.0 | 0.00 | 0.00 | 0.00 | 75 | 1018.5 |
| 20260502123504 | 43 | 63 | 0.0 | 1.0 | 0.00 | 0.00 | 0.00 | 79 | 1018.3 |
| 20260502123003 | 43 | 62 | 0.0 | 2.0 | 0.00 | 0.00 | 0.00 | 79 | 1018.3 |
| 20260502122503 | 43 | 72 | 0.0 | 2.0 | 0.00 | 0.00 | 0.00 | 81 | 1018.2 |
| 20260502122003 | 43 | 21 | 0.0 | 2.0 | 0.00 | 0.00 | 0.00 | 81 | 1018.2 |
| 20260502121717 | 43 | 357 | 0.0 | 2.0 | 0.00 | 0.00 | 0.00 | 82 | 1018.1 |
| 20260502121003 | 42 | 1 | 0.0 | 1.0 | 0.00 | 0.00 | 0.00 | 82 | 1017.9 |
| 20260502120503 | 42 | 359 | 0.0 | 1.0 | 0.00 | 0.00 | 0.00 | 82 | 1017.8 |
| 20260502115717 | 42 | 1 | 0.0 | 1.0 | 0.00 | 0.00 | 0.00 | 82 | 1017.7 |
| 20260502115003 | 42 | 13 | 0.0 | 1.0 | 0.00 | 0.00 | 0.00 | 83 | 1017.6 |
| 20260502114503 | 42 | 0 | 0.0 | 0.0 | 0.00 | 0.00 | 0.00 | 83 | 1017.7 |
| 20260502114003 | 42 | 353 | 0.0 | 1.0 | 0.00 | 0.00 | 0.00 | 83 | 1017.6 |
| 20260502113503 | 42 | 353 | 0.0 | 1.0 | 0.00 | 0.00 | 0.00 | 83 | 1017.5 |
| 20260502113004 | 42 | 351 | 0.0 | 1.0 | 0.00 | 0.00 | 0.00 | 83 | 1017.5 |
| 20260502112503 | 42 | 340 | 0.0 | 1.0 | 0.00 | 0.00 | 0.00 | 83 | 1017.3 |
| 20260502112003 | 42 | 0 | 0.0 | 0.0 | 0.00 | 0.00 | 0.00 | 84 | 1017.1 |
| 20260502111503 | 42 | 0 | 0.0 | 0.0 | 0.00 | 0.00 | 0.00 | 84 | 1016.9 |
| 20260502111003 | 42 | 36 | 0.0 | 2.0 | 0.00 | 0.00 | 0.00 | 83 | 1016.8 |
| 20260502110503 | 42 | 33 | 0.0 | 3.0 | 0.00 | 0.00 | 0.00 | 83 | 1016.8 |
| 20260502110004 | 42 | 29 | 0.0 | 3.0 | 0.00 | 0.00 | 0.00 | 83 | 1017.0 |
| 20260502105717 | 42 | 5 | 0.0 | 2.0 | 0.00 | 0.00 | 0.00 | 83 | 1017.1 |
| 20260502105004 | 42 | 360 | 0.0 | 2.0 | 0.00 | 0.00 | 0.00 | 83 | 1016.9 |
| 20260502104503 | 42 | 357 | 0.0 | 1.0 | 0.00 | 0.00 | 0.00 | 83 | 1017.0 |
| 20260502104003 | 42 | 2 | 0.0 | 1.0 | 0.00 | 0.00 | 0.00 | 83 | 1016.9 |
| 20260502103503 | 42 | 357 | 0.0 | 1.0 | 0.00 | 0.00 | 0.00 | 83 | 1017.0 |
| 20260502103218 | 42 | 356 | 0.0 | 1.0 | 0.00 | 0.00 | 0.00 | 83 | 1016.9 |
| 20260502102503 | 42 | 358 | 0.0 | 1.0 | 0.00 | 0.00 | 0.00 | 84 | 1017.0 |
| 20260502102003 | 42 | 7 | 0.0 | 1.0 | 0.00 | 0.00 | 0.00 | 84 | 1017.0 |
| 20260502101503 | 43 | 12 | 0.0 | 1.0 | 0.00 | 0.00 | 0.00 | 84 | 1017.0 |
| 20260502101003 | 43 | 355 | 0.0 | 1.0 | 0.00 | 0.00 | 0.00 | 84 | 1017.0 |
| 20260502100503 | 43 | 354 | 0.0 | 1.0 | 0.00 | 0.00 | 0.00 | 83 | 1017.0 |
| 20260502091503 | 44 | 5 | 0.0 | 3.0 | 0.00 | 0.00 | 0.00 | 83 | 1016.9 |
| 20260502091003 | 44 | 1 | 1.0 | 3.0 | 0.00 | 0.00 | 0.00 | 84 | 1016.8 |
| 20260502090503 | 44 | 356 | 1.0 | 3.0 | 0.00 | 0.00 | 0.00 | 84 | 1016.9 |
| 20260502071503 | 46 | 358 | 0.0 | 1.0 | 0.00 | 0.00 | 0.00 | 85 | 1016.5 |
| 20260502071003 | 46 | 357 | 0.0 | 2.0 | 0.00 | 0.00 | 0.00 | 85 | 1016.6 |
| 20260502070503 | 46 | 15 | 0.0 | 2.0 | 0.00 | 0.00 | 0.00 | 85 | 1016.6 |
| 20260502070004 | 47 | 40 | 0.0 | 3.0 | 0.00 | 0.00 | 0.00 | 85 | 1016.4 |
| 20260502065503 | 47 | 15 | 1.0 | 4.0 | 0.00 | 0.00 | 0.00 | 85 | 1016.5 |
| 20260502065003 | 47 | 360 | 1.0 | 4.0 | 0.00 | 0.00 | 0.00 | 86 | 1016.6 |
| 20260502064504 | 47 | 0 | 0.0 | 0.0 | 0.00 | 0.00 | 0.00 | 85 | 1016.6 |
| 20260502064003 | 47 | 0 | 0.0 | 0.0 | 0.00 | 0.00 | 0.00 | 84 | 1016.6 |
| 20260502063503 | 47 | 0 | 0.0 | 0.0 | 0.00 | 0.00 | 0.00 | 84 | 1016.6 |
| 20260502063003 | 47 | 0 | 0.0 | 0.0 | 0.00 | 0.00 | 0.00 | 84 | 1016.7 |
| 20260502062503 | 47 | 0 | 0.0 | 0.0 | 0.00 | 0.00 | 0.00 | 83 | 1016.7 |
| 20260502062004 | 47 | 63 | 0.0 | 2.0 | 0.00 | 0.00 | 0.00 | 83 | 1016.7 |
| 20260502061717 | 47 | 63 | 0.0 | 2.0 | 0.00 | 0.00 | 0.00 | 83 | 1016.8 |
| 20260502061003 | 48 | 107 | 0.0 | 2.0 | 0.00 | 0.00 | 0.00 | 84 | 1016.7 |
| 20260502060503 | 48 | 58 | 0.0 | 2.0 | 0.00 | 0.00 | 0.00 | 84 | 1016.7 |
| 20260502060004 | 48 | 22 | 0.0 | 2.0 | 0.00 | 0.00 | 0.00 | 82 | 1016.8 |
| 20260502055503 | 48 | 30 | 0.0 | 2.0 | 0.00 | 0.00 | 0.00 | 82 | 1016.9 |
| 20260502055222 | 48 | 0 | 0.0 | 0.0 | 0.00 | 0.00 | 0.00 | 82 | 1016.9 |
| 20260502054503 | 48 | 63 | 0.0 | 1.0 | 0.00 | 0.00 | 0.00 | 83 | 1016.9 |
| 20260502054003 | 48 | 34 | 0.0 | 1.0 | 0.00 | 0.00 | 0.00 | 83 | 1017.0 |
| 20260502053503 | 48 | 351 | 0.0 | 1.0 | 0.00 | 0.00 | 0.00 | 83 | 1016.9 |
| 20260502053003 | 48 | 0 | 0.0 | 0.0 | 0.00 | 0.00 | 0.00 | 83 | 1016.9 |
| 20260502052717 | 48 | 0 | 0.0 | 0.0 | 0.00 | 0.00 | 0.00 | 84 | 1016.9 |
| 20260502052003 | 48 | 354 | 0.0 | 1.0 | 0.00 | 0.00 | 0.00 | 83 | 1017.0 |
| 20260502051503 | 47 | 354 | 0.0 | 1.0 | 0.00 | 0.00 | 0.00 | 83 | 1016.9 |
| 20260502051003 | 47 | 0 | 0.0 | 0.0 | 0.00 | 0.00 | 0.00 | 84 | 1016.9 |
| 20260502050503 | 47 | 0 | 0.0 | 0.0 | 0.00 | 0.00 | 0.00 | 84 | 1016.7 |
| 20260502050004 | 47 | 0 | 0.0 | 0.0 | 0.00 | 0.00 | 0.00 | 85 | 1016.7 |
| 20260502045504 | 47 | 354 | 0.0 | 1.0 | 0.00 | 0.00 | 0.00 | 85 | 1016.7 |
| 20260502044504 | 47 | 354 | 0.0 | 1.0 | 0.00 | 0.00 | 0.00 | 85 | 1016.8 |
| 20260502044003 | 47 | 354 | 0.0 | 1.0 | 0.00 | 0.00 | 0.00 | 85 | 1016.9 |
| 20260502043504 | 47 | 0 | 0.0 | 0.0 | 0.00 | 0.00 | 0.00 | 87 | 1016.9 |
| 20260502043217 | 47 | 0 | 0.0 | 0.0 | 0.00 | 0.00 | 0.00 | 87 | 1016.9 |
| 20260502042503 | 46 | 0 | 0.0 | 0.0 | 0.00 | 0.00 | 0.00 | 87 | 1016.9 |
| 20260502042217 | 46 | 0 | 0.0 | 0.0 | 0.00 | 0.00 | 0.00 | 87 | 1016.9 |
| 20260502041718 | 46 | 0 | 0.0 | 0.0 | 0.00 | 0.00 | 0.00 | 88 | 1017.0 |
| 20260502041003 | 46 | 0 | 0.0 | 0.0 | 0.00 | 0.00 | 0.00 | 88 | 1017.0 |
| 20260502040503 | 46 | 0 | 0.0 | 0.0 | 0.00 | 0.00 | 0.00 | 88 | 1016.9 |
| 20260502040006 | 46 | 0 | 0.0 | 0.0 | 0.00 | 0.00 | 0.00 | 88 | 1016.9 |
| 20260502035503 | 46 | 0 | 0.0 | 0.0 | 0.00 | 0.00 | 0.00 | 88 | 1017.0 |
| 20260502035003 | 46 | 0 | 0.0 | 0.0 | 0.00 | 0.00 | 0.00 | 88 | 1017.0 |
| 20260502034503 | 46 | 0 | 0.0 | 0.0 | 0.00 | 0.00 | 0.00 | 88 | 1016.9 |
| 20260502034003 | 45 | 0 | 0.0 | 0.0 | 0.00 | 0.00 | 0.00 | 88 | 1017.0 |
| 20260502033503 | 45 | 0 | 0.0 | 0.0 | 0.00 | 0.00 | 0.00 | 88 | 1017.0 |
| 20260502033217 | 45 | 0 | 0.0 | 0.0 | 0.00 | 0.00 | 0.00 | 88 | 1017.1 |